Flag for Finland Weather past 2 weeks in Vantaa, Finland

Now
34 °F

Passing clouds.


Feels Like: 28 °F
Forecast: 32 / 42 °F
Wind: 7 mph from South

Location: Helsinki-Vantaa

Current Time: Apr 1, 2015 at 12:38:41 AM

Latest Report: Mar 31, 2015 at 11:50 PM


Visibility: N/A

Pressure: 29.21 "Hg

Humidity: 93%

Dew point: 32 °F

Location of VantaaLocation

Historic Weather in Vantaa — Graph

°F

Vantaa temperature yesterday

Maximum temperature yesterday: 37 °F (at 4:50 AM)
Minimum temperature yesterday: 34 °F (at 9:20 PM)
Average temperature yesterday: 36 °F

Past Weeks' High & Low Weather Summary

 TemperatureHumidityPressure
High54 °F (Mar 18, 1:50 PM)100% (Mar 29, 12:50 AM)31.01 "Hg (Mar 29, 12:50 AM)
Low16 °F (Mar 22, 5:20 AM)22% (Mar 18, 4:20 PM)28.82 "Hg (Mar 31, 7:20 AM)
Average34 °F71%29.95 "Hg
* Reported Mar 16 10:20 PM — Mar 31 11:20 PM, Vantaa, Weather by CustomWeather, © 2015

Note: Actual official high and low records may vary slightly from our data, if they occured in-between our weather recording intervals... More about our weather records

Advertising

Vantaa weather history for previous 24 hours

 ConditionsComfort  
Time TempWeatherWind HumidityBarometerVisibility
11:20 PM
Tue, Mar 31
36 °FPassing clouds.7 mph81%29.21 "HgN/A
10:50 PM36 °FPassing clouds.9 mph81%29.21 "HgN/A
10:20 PM36 °FPassing clouds.7 mph87%29.18 "HgN/A
9:50 PM34 °FPassing clouds.8 mph93%29.18 "HgN/A
9:20 PM34 °FPartly cloudy.8 mph93%29.15 "HgN/A
8:50 PM36 °FPartly sunny.10 mph87%29.15 "HgN/A
8:20 PM36 °FBroken clouds.12 mph87%29.15 "HgN/A
7:50 PM36 °FPartly sunny.12 mph87%29.12 "HgN/A
7:20 PM37 °FScattered showers. Partly sunny.14 mph81%29.12 "HgN/A
6:50 PM37 °FPartly sunny.15 mph81%29.12 "HgN/A
6:20 PM37 °FBroken clouds.16 mph81%29.09 "HgN/A
5:50 PM37 °FPartly sunny.16 mph81%29.09 "HgN/A
5:20 PM37 °FPartly sunny.16 mph81%29.09 "HgN/A
4:50 PM37 °FBroken clouds.15 mph81%29.06 "HgN/A
4:20 PM37 °FScattered showers. Broken clouds.14 mph81%29.06 "HgN/A
3:50 PM36 °FScattered showers. Partly sunny.16 mph87%29.06 "HgN/A
3:20 PM37 °FScattered showers. Partly sunny.20 mph81%29.06 "HgN/A
2:50 PM36 °FScattered showers. Partly sunny.17 mph87%29.03 "HgN/A
2:20 PM36 °FScattered showers. Partly sunny.20 mph87%29.03 "HgN/A
1:50 PM36 °FScattered showers. Partly sunny.20 mph87%29.00 "HgN/A
1:20 PM36 °FPartly sunny.22 mph87%28.97 "HgN/A
12:50 PM36 °FPartly sunny.22 mph87%28.97 "HgN/A
12:20 PM36 °FPartly sunny.24 mph87%28.94 "HgN/A
11:50 AM36 °FLight rain. Partly sunny.21 mph93%28.91 "HgN/A
11:20 AM36 °FLight rain. Partly sunny.23 mph93%28.91 "HgN/A
10:50 AM36 °FLight rain. Partly sunny.23 mph93%28.91 "HgN/A
10:20 AM36 °FLight rain. Partly sunny.24 mph93%28.88 "HgN/A
9:50 AM36 °FLight rain. Partly sunny.17 mph100%28.85 "Hg5 mi
9:20 AM36 °FLight rain. Partly sunny.17 mph93%28.85 "Hg6 mi
8:50 AM36 °FLight rain. Partly sunny.17 mph93%28.85 "Hg6 mi
8:20 AM36 °FLight rain. Partly sunny.15 mph93%28.85 "HgN/A
7:50 AM36 °FLight rain. Partly sunny.15 mph93%28.82 "HgN/A
7:20 AM36 °FLight rain. Passing clouds.16 mph93%28.82 "HgN/A
6:50 AM36 °FLight rain. Passing clouds.20 mph93%28.85 "Hg6 mi
6:20 AM37 °FLight rain. Passing clouds.22 mph87%28.85 "HgN/A
5:50 AM37 °FLight rain. Passing clouds.22 mph87%28.85 "HgN/A
5:20 AM37 °FLight rain. Passing clouds.21 mph87%28.85 "HgN/A
4:50 AM37 °FLight rain. Passing clouds.22 mph93%28.88 "HgN/A
4:20 AM36 °FLight rain. Passing clouds.21 mph93%28.91 "HgN/A
3:50 AM36 °FPassing clouds.17 mph93%28.91 "HgN/A
3:20 AM36 °FPassing clouds.17 mph93%28.94 "HgN/A
2:20 AM36 °FPassing clouds.16 mph93%28.97 "HgN/A
1:50 AM36 °FPassing clouds.14 mph93%29.00 "HgN/A
1:20 AM36 °FPassing clouds.13 mph93%29.00 "HgN/A
12:50 AM36 °FPassing clouds.12 mph93%29.00 "HgN/A
12:20 AM36 °FPassing clouds.12 mph93%29.00 "HgN/A
Weather by CustomWeather, © 2015

See weather overviewHow to use our weather pages